Location: Kershaw
(34.5481°N, 80.5823°W)
Time: 14:27:15
(UTC+00:00)

Tiros 1 despin weight - Visible Passes

Search period start: 03 October 2022 00:00
Search period end: 13 October 2022 00:00
Orbit: 590 x 638 km, 48.2° (Epoch: 02 October)

Date Brightness Start Highest point End Pass type
(mag) Time Alt. Az. Time Alt. Az. Time Alt. Az.
03 Oct ? 00:52:17 10° NNW 00:55:04 16° N 00:55:41 15° NNE visible
03 Oct ? 23:25:30 10° NW 23:28:04 15° N 23:30:38 10° NNE visible
04 Oct ? 01:07:37 10° NNW 01:10:16 19° N 01:10:16 19° N visible
04 Oct ? 23:41:28 10° NNW 23:43:59 14° N 23:46:32 10° NE visible
05 Oct ? 01:22:47 10° NW 01:24:52 21° NNW 01:24:52 21° NNW visible
05 Oct ? 23:56:58 10° NNW 23:59:53 16° NNE 00:02:31 11° NE visible
06 Oct ? 01:37:55 10° NW 01:39:30 20° NNW 01:39:30 20° NNW visible
07 Oct ? 00:12:12 10° NNW 00:15:42 21° NNE 00:17:11 18° NE visible
07 Oct ? 01:53:09 10° NW 01:54:10 17° NW 01:54:10 17° NW visible
08 Oct ? 00:27:20 10° NW 00:31:24 31° NNE 00:31:54 30° NE visible
08 Oct ? 02:08:34 10° WNW 02:08:53 12° WNW 02:08:53 12° WNW visible
09 Oct ? 00:42:28 10° NW 00:46:42 50° NNE 00:46:42 50° NNE visible
09 Oct ? 23:16:45 10° NNW 23:20:24 23° NNE 23:24:06 10° ENE visible
10 Oct ? 00:57:44 10° NW 01:01:35 63° WNW 01:01:35 63° WNW visible
10 Oct ? 23:31:51 10° NW 23:36:01 35° NNE 23:39:35 14° E visible
11 Oct ? 01:13:14 10° WNW 01:16:35 37° WSW 01:16:35 37° WSW visible
11 Oct ? 23:46:59 10° NW 23:51:30 62° NE 23:54:43 19° ESE visible
12 Oct ? 01:29:15 10° W 01:31:44 19° WSW 01:31:44 19° WSW visible
